Hourly Weather Bolshie Karnyshi

Today, 17 June, Thursday

Time Temperature Precipitation Wind Pressure Humidity
00:00 +12°C° 0 mm 2 mps 741 mmHg 84%
01:00 +12°C° 0 mm 2 mps 741 mmHg 84%
02:00 +10°C° 0 mm 2 mps 742 mmHg 84%
03:00 +10°C° 0 mm 2 mps 742 mmHg 83%
04:00 +10°C° 0 mm 2 mps 742 mmHg 83%
05:00 +10°C° 0 mm 2 mps 742 mmHg 82%
06:00 +14°C° 0 mm 2 mps 742 mmHg 76%
07:00 +16°C° 0 mm 2 mps 742 mmHg 71%
08:00 +18°C° 0 mm 2 mps 743 mmHg 65%
09:00 +19°C° 0 mm 2 mps 743 mmHg 61%
10:00 +21°C° 0 mm 2 mps 743 mmHg 57%
11:00 +23°C° 0 mm 2 mps 744 mmHg 53%
12:00 +24°C° 0 mm 2 mps 743 mmHg 52%
13:00 +25°C° 0 mm 2 mps 743 mmHg 51%
14:00 +25°C° 0 mm 2 mps 743 mmHg 49%
15:00 +25°C° 0 mm 2 mps 743 mmHg 52%
16:00 +25°C° 0 mm 2 mps 743 mmHg 54%
17:00 +25°C° 0 mm 2 mps 743 mmHg 56%
18:00 +24°C° 0 mm 2 mps 743 mmHg 63%
19:00 +21°C° 0 mm 2 mps 743 mmHg 70%
20:00 +20°C° 0 mm 2 mps 743 mmHg 77%
21:00 +18°C° 0 mm 2 mps 743 mmHg 80%
22:00 +17°C° 0 mm 2 mps 743 mmHg 83%
23:00 +16°C° 0 mm 2 mps 743 mmHg 86%

Tomorrow, 18 June, Friday

Time Temperature Precipitation Wind Pressure Humidity
00:00 +16°C° 0 mm 2 mps 743 mmHg 87%
01:00 +15°C° 0 mm 2 mps 743 mmHg 89%
02:00 +14°C° 0 mm 2 mps 743 mmHg 90%
03:00 +14°C° 0 mm 2 mps 743 mmHg 89%
04:00 +14°C° 0 mm 2 mps 744 mmHg 89%
05:00 +14°C° 0 mm 2 mps 744 mmHg 89%
06:00 +16°C° 0 mm 2 mps 744 mmHg 83%
07:00 +18°C° 0 mm 3 mps 744 mmHg 77%
08:00 +20°C° 0 mm 3 mps 744 mmHg 71%
09:00 +21°C° 0 mm 3 mps 744 mmHg 66%
10:00 +22°C° 0 mm 3 mps 744 mmHg 62%
11:00 +24°C° 0 mm 3 mps 744 mmHg 58%
12:00 +25°C° 0 mm 3 mps 744 mmHg 56%
13:00 +25°C° 0 mm 3 mps 744 mmHg 54%
14:00 +26°C° 0 mm 3 mps 743 mmHg 52%
15:00 +26°C° 0 mm 3 mps 743 mmHg 55%
16:00 +26°C° 0 mm 3 mps 743 mmHg 58%
17:00 +25°C° 0 mm 3 mps 743 mmHg 60%
18:00 +24°C° 0 mm 2 mps 743 mmHg 67%
19:00 +23°C° 0 mm 2 mps 742 mmHg 74%
20:00 +20°C° 0 mm 2 mps 742 mmHg 81%
21:00 +19°C° 0 mm 2 mps 742 mmHg 84%
22:00 +18°C° 0 mm 2 mps 743 mmHg 87%
23:00 +17°C° 0 mm 3 mps 743 mmHg 90%

Day after tomorrow, 19 June, Saturday

Time Temperature Precipitation Wind Pressure Humidity
00:00 +17°C° 0 mm 3 mps 743 mmHg 91%
01:00 +16°C° 0 mm 3 mps 743 mmHg 91%
02:00 +16°C° 0 mm 2 mps 742 mmHg 92%
03:00 +16°C° 0 mm 2 mps 743 mmHg 93%
04:00 +16°C° 0 mm 2 mps 743 mmHg 94%
05:00 +16°C° 0 mm 2 mps 743 mmHg 95%
06:00 +18°C° 0 mm 3 mps 743 mmHg 89%
07:00 +20°C° 0 mm 3 mps 743 mmHg 84%
08:00 +21°C° 0 mm 3 mps 743 mmHg 79%
09:00 +24°C° 0 mm 3 mps 743 mmHg 75%
10:00 +25°C° 0 mm 4 mps 743 mmHg 71%
11:00 +26°C° 0 mm 4 mps 743 mmHg 66%
12:00 +26°C° 0 mm 4 mps 742 mmHg 66%
13:00 +26°C° 0 mm 4 mps 742 mmHg 65%
14:00 +26°C° 0 mm 3 mps 742 mmHg 64%
15:00 +26°C° 0 mm 3 mps 742 mmHg 65%
16:00 +26°C° 0 mm 3 mps 741 mmHg 66%
17:00 +26°C° 0 mm 3 mps 741 mmHg 67%
18:00 +25°C° 0 mm 3 mps 741 mmHg 72%
19:00 +24°C° 0 mm 3 mps 741 mmHg 77%
20:00 +21°C° 0 mm 2 mps 741 mmHg 82%
21:00 +20°C° 0 mm 2 mps 741 mmHg 83%
22:00 +19°C° 0 mm 2 mps 741 mmHg 84%
23:00 +18°C° 0 mm 3 mps 741 mmHg 85%

20 June, Sunday

Time Temperature Precipitation Wind Pressure Humidity
00:00 +17°C° 0 mm 2 mps 741 mmHg 87%
01:00 +17°C° 0 mm 2 mps 741 mmHg 90%
02:00 +16°C° 0 mm 2 mps 741 mmHg 92%
03:00 +17°C° 0 mm 2 mps 741 mmHg 93%
04:00 +17°C° 0 mm 2 mps 741 mmHg 93%
05:00 +17°C° 0 mm 2 mps 741 mmHg 93%
06:00 +19°C° 0 mm 2 mps 741 mmHg 88%
07:00 +21°C° 0 mm 3 mps 741 mmHg 83%
08:00 +22°C° 0 mm 3 mps 741 mmHg 77%
09:00 +24°C° 0.1 mm 3 mps 741 mmHg 76%
10:00 +23°C° 0.1 mm 4 mps 741 mmHg 74%
11:00 +25°C° 0.1 mm 4 mps 741 mmHg 73%
12:00 +25°C° 0.1 mm 4 mps 740 mmHg 72%
13:00 +25°C° 0.1 mm 3 mps 740 mmHg 72%
14:00 +25°C° 0.1 mm 3 mps 740 mmHg 72%
15:00 +25°C° 0.1 mm 3 mps 740 mmHg 71%
16:00 +26°C° 0.1 mm 3 mps 739 mmHg 70%
17:00 +27°C° 0.1 mm 3 mps 739 mmHg 69%
18:00 +25°C° 0.4 mm 2 mps 739 mmHg 74%
19:00 +24°C° 0.4 mm 2 mps 739 mmHg 80%
20:00 +23°C° 0.4 mm 2 mps 738 mmHg 85%
21:00 +21°C° 0 mm 2 mps 738 mmHg 87%
22:00 +20°C° 0 mm 3 mps 739 mmHg 90%
23:00 +19°C° 0 mm 3 mps 739 mmHg 92%

21 June, Monday

Time Temperature Precipitation Wind Pressure Humidity
00:00 +18°C° 0 mm 3 mps 738 mmHg 93%
01:00 +18°C° 0 mm 3 mps 738 mmHg 93%
02:00 +17°C° 0 mm 3 mps 738 mmHg 93%
03:00 +17°C° 0 mm 3 mps 738 mmHg 94%
04:00 +17°C° 0 mm 3 mps 738 mmHg 94%
05:00 +17°C° 0 mm 2 mps 738 mmHg 95%
06:00 +18°C° 0 mm 3 mps 738 mmHg 89%
07:00 +20°C° 0 mm 3 mps 738 mmHg 84%
08:00 +21°C° 0 mm 4 mps 738 mmHg 78%
09:00 +23°C° 0 mm 4 mps 738 mmHg 71%
10:00 +25°C° 0 mm 4 mps 738 mmHg 64%
11:00 +27°C° 0 mm 5 mps 738 mmHg 58%
12:00 +27°C° 0 mm 5 mps 738 mmHg 56%
13:00 +28°C° 0 mm 5 mps 737 mmHg 54%
14:00 +28°C° 0 mm 4 mps 737 mmHg 52%
15:00 +28°C° 0 mm 5 mps 737 mmHg 55%
16:00 +28°C° 0 mm 5 mps 737 mmHg 58%
17:00 +28°C° 0 mm 5 mps 737 mmHg 61%
18:00 +26°C° 0 mm 4 mps 736 mmHg 68%
19:00 +25°C° 0 mm 4 mps 736 mmHg 74%
20:00 +22°C° 0 mm 3 mps 736 mmHg 81%
21:00 +21°C° 0 mm 3 mps 736 mmHg 84%
22:00 +21°C° 0 mm 3 mps 736 mmHg 87%
23:00 +20°C° 0 mm 3 mps 735 mmHg 90%

22 June, Tuesday

Time Temperature Precipitation Wind Pressure Humidity
00:00 +20°C° 0 mm 3 mps 735 mmHg 91%
01:00 +19°C° 0 mm 3 mps 735 mmHg 92%
02:00 +19°C° 0 mm 3 mps 735 mmHg 93%
03:00 +19°C° 0 mm 3 mps 735 mmHg 93%
04:00 +19°C° 0 mm 3 mps 735 mmHg 93%
05:00 +19°C° 0 mm 3 mps 735 mmHg 93%
06:00 +20°C° 0 mm 4 mps 735 mmHg 89%
07:00 +22°C° 0 mm 4 mps 735 mmHg 85%
08:00 +23°C° 0 mm 4 mps 735 mmHg 81%
09:00 +25°C° 0.5 mm 5 mps 735 mmHg 77%
10:00 +26°C° 0.5 mm 5 mps 735 mmHg 74%
11:00 +27°C° 0.5 mm 6 mps 736 mmHg 70%
12:00 +27°C° 0.6 mm 5 mps 736 mmHg 70%
13:00 +28°C° 0.6 mm 5 mps 736 mmHg 69%
14:00 +28°C° 0.6 mm 5 mps 736 mmHg 68%
15:00 +28°C° 0.4 mm 4 mps 736 mmHg 68%
16:00 +28°C° 0.4 mm 4 mps 736 mmHg 68%
17:00 +29°C° 0.4 mm 3 mps 736 mmHg 67%
18:00 +27°C° 0.2 mm 3 mps 735 mmHg 73%
19:00 +26°C° 0.2 mm 2 mps 735 mmHg 78%
20:00 +25°C° 0.2 mm 2 mps 735 mmHg 83%
21:00 +24°C° 0.2 mm 3 mps 735 mmHg 85%
22:00 +24°C° 0.2 mm 3 mps 735 mmHg 87%
23:00 +22°C° 0.2 mm 3 mps 735 mmHg 88%
Show more